DL1MMS-10 Weather Reports


Display with metric or nautical units.
time (UTC)temp
F
wind
direction
speed
MPH
gust
MPH
rain 1hr
in
rain 24hr
in
rain mn
in
humidity
%
barometer
mb
20260502224926 49 0 0.0 0.0 0.00 0.00 0.00 69 1018.1
20260502224426 49 0 0.0 0.0 0.00 0.00 0.00 68 1018.2
20260502223925 49 0 0.0 0.0 0.00 0.00 0.00 68 1018.2
20260502223425 49 0 0.0 0.0 0.00 0.00 0.00 68 1018.2
20260502222925 49 0 0.0 0.0 0.00 0.00 0.00 68 1018.4
20260502222424 49 0 0.0 0.0 0.00 0.00 0.00 67 1018.4
20260502221924 49 0 0.0 0.0 0.00 0.00 0.00 67 1018.4
20260502221424 50 0 0.0 0.0 0.00 0.00 0.00 67 1018.4
20260502220924 50 0 0.0 0.0 0.00 0.00 0.00 67 1018.4
20260502220423 51 0 0.0 0.0 0.00 0.00 0.00 66 1018.4
20260502215923 51 0 0.0 0.0 0.00 0.00 0.00 65 1018.4
20260502215423 51 0 0.0 0.0 0.00 0.00 0.00 64 1018.4
20260502214923 51 0 0.0 0.0 0.00 0.00 0.00 63 1018.5
20260502214422 51 0 0.0 0.0 0.00 0.00 0.00 64 1018.4
20260502213922 52 0 0.0 0.0 0.00 0.00 0.00 64 1018.5
20260502213422 52 0 0.0 0.0 0.00 0.00 0.00 63 1018.4
20260502212921 52 0 0.0 0.0 0.00 0.00 0.00 63 1018.6
20260502212421 52 0 0.0 0.0 0.00 0.00 0.00 63 1018.7
20260502211921 52 0 0.0 0.0 0.00 0.00 0.00 63 1018.6
20260502211420 53 0 0.0 0.0 0.00 0.00 0.00 62 1018.6
20260502210920 53 0 0.0 0.0 0.00 0.00 0.00 62 1018.7
20260502210420 53 0 0.0 0.0 0.00 0.00 0.00 62 1018.7
20260502205920 53 0 0.0 0.0 0.00 0.00 0.00 61 1018.7
20260502205419 54 0 0.0 0.0 0.00 0.00 0.00 60 1018.8
20260502204919 55 0 0.0 0.0 0.00 0.00 0.00 59 1018.9
20260502204419 55 0 0.0 0.0 0.00 0.00 0.00 58 1018.9
20260502203919 55 0 0.0 0.0 0.00 0.00 0.00 56 1019.0
20260502203418 56 0 0.0 0.0 0.00 0.00 0.00 55 1018.9
20260502202918 56 0 0.0 0.0 0.00 0.00 0.00 54 1019.0
20260502202418 57 0 0.0 0.0 0.00 0.00 0.00 54 1018.9
20260502201917 57 0 0.0 0.0 0.00 0.00 0.00 54 1019.0
20260502201417 57 0 0.0 0.0 0.00 0.00 0.00 54 1019.1
20260502200917 57 0 0.0 0.0 0.00 0.00 0.00 53 1019.1
20260502200417 58 0 0.0 0.0 0.00 0.00 0.00 52 1019.0
20260502195916 59 0 0.0 0.0 0.00 0.00 0.00 51 1019.0
20260502195416 59 0 0.0 0.0 0.00 0.00 0.00 51 1019.0
20260502194916 59 0 0.0 0.0 0.00 0.00 0.00 50 1019.1
20260502194415 60 0 0.0 0.0 0.00 0.00 0.00 50 1019.0
20260502193915 60 0 0.0 0.0 0.00 0.00 0.00 49 1018.9
20260502193415 60 0 0.0 0.0 0.00 0.00 0.00 49 1018.9
20260502192915 60 0 0.0 0.0 0.00 0.00 0.00 48 1019.0
20260502192414 61 0 0.0 0.0 0.00 0.00 0.00 47 1018.8
20260502191914 61 0 0.0 0.0 0.00 0.00 0.00 47 1018.8
20260502191414 62 0 0.0 0.0 0.00 0.00 0.00 47 1018.9
20260502190913 62 0 0.0 0.0 0.00 0.00 0.00 46 1018.8
20260502190413 63 0 0.0 0.0 0.00 0.00 0.00 46 1018.7
20260502185913 64 0 0.0 0.0 0.00 0.00 0.00 45 1018.6
20260502185413 64 0 0.0 0.0 0.00 0.00 0.00 44 1018.8
20260502184912 65 0 0.0 0.0 0.00 0.00 0.00 43 1018.7
20260502184412 66 0 0.0 0.0 0.00 0.00 0.00 42 1018.6
20260502183912 67 0 0.0 0.0 0.00 0.00 0.00 42 1018.7
20260502183411 69 0 0.0 0.0 0.00 0.00 0.00 40 1018.7
20260502182911 70 0 0.0 0.0 0.00 0.00 0.00 36 1018.7
20260502182411 70 0 0.0 0.0 0.00 0.00 0.00 35 1018.6
20260502181911 71 0 0.0 0.0 0.00 0.00 0.00 34 1018.5
20260502181410 72 0 0.0 0.0 0.00 0.00 0.00 34 1018.7
20260502180910 73 0 0.0 0.0 0.00 0.00 0.00 33 1018.6
20260502180410 73 0 0.0 0.0 0.00 0.00 0.00 33 1018.5
20260502170406 82 0 0.0 0.0 0.00 0.00 0.00 23 1018.6
20260502163905 89 0 0.0 0.0 0.00 0.00 0.00 20 1018.8
20260502163405 91 0 0.0 0.0 0.00 0.00 0.00 19 1018.8
20260502162904 93 0 0.0 0.0 0.00 0.00 0.00 18 1018.8
20260502162404 94 0 0.0 0.0 0.00 0.00 0.00 18 1018.9
20260502161904 95 0 0.0 0.0 0.00 0.00 0.00 18 1019.0
20260502161404 96 0 0.0 0.0 0.00 0.00 0.00 17 1019.0
20260502160903 98 0 0.0 0.0 0.00 0.00 0.00 17 1019.0
20260502160403 100 0 0.0 0.0 0.00 0.00 0.00 15 1019.1
20260502151900 101 0 0.0 0.0 0.00 0.00 0.00 17 1019.3
20260502151400 101 0 0.0 0.0 0.00 0.00 0.00 17 1019.4
20260502150900 101 0 0.0 0.0 0.00 0.00 0.00 17 1019.6
20260502150400 101 0 0.0 0.0 0.00 0.00 0.00 17 1019.6
20260502130353 96 0 0.0 0.0 0.00 0.00 0.00 20 1020.8
20260502123351 91 0 0.0 0.0 0.00 0.00 0.00 22 1021.3
20260502122851 91 0 0.0 0.0 0.00 0.00 0.00 21 1021.3
20260502122350 93 0 0.0 0.0 0.00 0.00 0.00 21 1021.4
20260502121850 93 0 0.0 0.0 0.00 0.00 0.00 23 1021.4
20260502121350 93 0 0.0 0.0 0.00 0.00 0.00 21 1021.5
20260502120850 94 0 0.0 0.0 0.00 0.00 0.00 21 1021.4
20260502120349 94 0 0.0 0.0 0.00 0.00 0.00 23 1021.4
20260502115849 93 0 0.0 0.0 0.00 0.00 0.00 24 1021.6
20260502115349 91 0 0.0 0.0 0.00 0.00 0.00 24 1021.6
20260502114849 91 0 0.0 0.0 0.00 0.00 0.00 24 1021.6
20260502114349 91 0 0.0 0.0 0.00 0.00 0.00 24 1021.9
20260502113848 91 0 0.0 0.0 0.00 0.00 0.00 24 1021.9
20260502113348 89 0 0.0 0.0 0.00 0.00 0.00 24 1021.9
20260502112847 89 0 0.0 0.0 0.00 0.00 0.00 25 1022.0
20260502112347 91 0 0.0 0.0 0.00 0.00 0.00 24 1021.9
20260502111847 92 0 0.0 0.0 0.00 0.00 0.00 23 1022.0
20260502111346 93 0 0.0 0.0 0.00 0.00 0.00 24 1022.2
20260502110846 92 0 0.0 0.0 0.00 0.00 0.00 24 1022.2
20260502110346 92 0 0.0 0.0 0.00 0.00 0.00 24 1022.0
20260502105846 93 0 0.0 0.0 0.00 0.00 0.00 24 1022.1
20260502105345 92 0 0.0 0.0 0.00 0.00 0.00 24 1022.2
20260502104845 93 0 0.0 0.0 0.00 0.00 0.00 25 1022.2
20260502104345 91 0 0.0 0.0 0.00 0.00 0.00 26 1022.2
20260502103844 91 0 0.0 0.0 0.00 0.00 0.00 26 1022.3
20260502103344 91 0 0.0 0.0 0.00 0.00 0.00 26 1022.2
20260502102844 90 0 0.0 0.0 0.00 0.00 0.00 26 1022.4
20260502102344 88 0 0.0 0.0 0.00 0.00 0.00 28 1022.4
20260502101843 86 0 0.0 0.0 0.00 0.00 0.00 30 1022.5
20260502101343 82 0 0.0 0.0 0.00 0.00 0.00 34 1022.5
20260502100843 78 0 0.0 0.0 0.00 0.00 0.00 36 1022.6
20260502100343 72 0 0.0 0.0 0.00 0.00 0.00 39 1022.7
20260502091340 66 0 0.0 0.0 0.00 0.00 0.00 44 1023.1
20260502090839 66 0 0.0 0.0 0.00 0.00 0.00 45 1023.2
20260502090339 65 0 0.0 0.0 0.00 0.00 0.00 46 1023.1
20260502071333 51 0 0.0 0.0 0.00 0.00 0.00 68 1023.5
20260502070833 50 0 0.0 0.0 0.00 0.00 0.00 69 1023.6
20260502070332 50 0 0.0 0.0 0.00 0.00 0.00 70 1023.7
20260502065832 49 0 0.0 0.0 0.00 0.00 0.00 71 1023.5
20260502065332 48 0 0.0 0.0 0.00 0.00 0.00 71 1023.7
20260502064831 48 0 0.0 0.0 0.00 0.00 0.00 72 1023.6
20260502064331 47 0 0.0 0.0 0.00 0.00 0.00 72 1023.7
20260502063831 46 0 0.0 0.0 0.00 0.00 0.00 72 1023.6
20260502063331 46 0 0.0 0.0 0.00 0.00 0.00 73 1023.6
20260502062830 45 0 0.0 0.0 0.00 0.00 0.00 73 1023.6
20260502062330 45 0 0.0 0.0 0.00 0.00 0.00 74 1023.5
20260502061830 44 0 0.0 0.0 0.00 0.00 0.00 75 1023.5
20260502061329 43 0 0.0 0.0 0.00 0.00 0.00 75 1023.6
20260502060829 42 0 0.0 0.0 0.00 0.00 0.00 75 1023.6
20260502060329 42 0 0.0 0.0 0.00 0.00 0.00 76 1023.8
20260502055829 41 0 0.0 0.0 0.00 0.00 0.00 76 1023.7
20260502055328 41 0 0.0 0.0 0.00 0.00 0.00 76 1023.7
20260502054828 40 0 0.0 0.0 0.00 0.00 0.00 76 1023.7
20260502054328 39 0 0.0 0.0 0.00 0.00 0.00 76 1023.7
20260502053827 39 0 0.0 0.0 0.00 0.00 0.00 76 1023.6
20260502053328 38 0 0.0 0.0 0.00 0.00 0.00 76 1023.7
20260502052827 38 0 0.0 0.0 0.00 0.00 0.00 75 1023.8
20260502052327 37 0 0.0 0.0 0.00 0.00 0.00 75 1023.8
20260502051826 37 0 0.0 0.0 0.00 0.00 0.00 75 1023.8
20260502051326 37 0 0.0 0.0 0.00 0.00 0.00 75 1023.8
20260502050826 37 0 0.0 0.0 0.00 0.00 0.00 75 1023.8
20260502050325 36 0 0.0 0.0 0.00 0.00 0.00 75 1023.7
20260502045825 36 0 0.0 0.0 0.00 0.00 0.00 75 1023.7
20260502045325 36 0 0.0 0.0 0.00 0.00 0.00 75 1023.7
20260502044825 36 0 0.0 0.0 0.00 0.00 0.00 76 1023.7
20260502044324 35 0 0.0 0.0 0.00 0.00 0.00 75 1023.7
20260502043824 35 0 0.0 0.0 0.00 0.00 0.00 75 1023.5
20260502043324 35 0 0.0 0.0 0.00 0.00 0.00 75 1023.6
20260502042824 35 0 0.0 0.0 0.00 0.00 0.00 74 1023.6
20260502042323 35 0 0.0 0.0 0.00 0.00 0.00 74 1023.6
20260502041823 35 0 0.0 0.0 0.00 0.00 0.00 75 1023.5
20260502041323 35 0 0.0 0.0 0.00 0.00 0.00 74 1023.5
20260502040822 35 0 0.0 0.0 0.00 0.00 0.00 74 1023.6
20260502040322 35 0 0.0 0.0 0.00 0.00 0.00 74 1023.6
20260502035822 35 0 0.0 0.0 0.00 0.00 0.00 74 1023.5
20260502035322 35 0 0.0 0.0 0.00 0.00 0.00 74 1023.4
20260502034821 35 0 0.0 0.0 0.00 0.00 0.00 74 1023.4
20260502034321 35 0 0.0 0.0 0.00 0.00 0.00 74 1023.3
20260502033821 35 0 0.0 0.0 0.00 0.00 0.00 74 1023.3
20260502033320 35 0 0.0 0.0 0.00 0.00 0.00 74 1023.4
20260502032820 35 0 0.0 0.0 0.00 0.00 0.00 74 1023.3
20260502032320 36 0 0.0 0.0 0.00 0.00 0.00 74 1023.5
20260502031820 35 0 0.0 0.0 0.00 0.00 0.00 73 1023.5
20260502031319 35 0 0.0 0.0 0.00 0.00 0.00 73 1023.5
20260502030819 35 0 0.0 0.0 0.00 0.00 0.00 73 1023.6
20260502030319 35 0 0.0 0.0 0.00 0.00 0.00 73 1023.7
20260502025818 36 0 0.0 0.0 0.00 0.00 0.00 73 1023.6
20260502025318 36 0 0.0 0.0 0.00 0.00 0.00 72 1023.6
20260502024818 36 0 0.0 0.0 0.00 0.00 0.00 72 1023.5
20260502024318 37 0 0.0 0.0 0.00 0.00 0.00 72 1023.6
20260502023817 37 0 0.0 0.0 0.00 0.00 0.00 71 1023.5
20260502023317 37 0 0.0 0.0 0.00 0.00 0.00 71 1023.6
20260502022817 37 0 0.0 0.0 0.00 0.00 0.00 71 1023.6
20260502022316 37 0 0.0 0.0 0.00 0.00 0.00 70 1023.6
20260502021816 38 0 0.0 0.0 0.00 0.00 0.00 70 1023.7
20260502021316 38 0 0.0 0.0 0.00 0.00 0.00 70 1023.6
20260502020816 38 0 0.0 0.0 0.00 0.00 0.00 70 1023.6
20260502020315 38 0 0.0 0.0 0.00 0.00 0.00 70 1023.5
20260502015815 38 0 0.0 0.0 0.00 0.00 0.00 69 1023.6
20260502015315 38 0 0.0 0.0 0.00 0.00 0.00 69 1023.5
20260502014814 38 0 0.0 0.0 0.00 0.00 0.00 69 1023.5
20260502014314 38 0 0.0 0.0 0.00 0.00 0.00 69 1023.6
20260502013814 38 0 0.0 0.0 0.00 0.00 0.00 69 1023.6
20260502013314 39 0 0.0 0.0 0.00 0.00 0.00 69 1023.6
20260502012813 39 0 0.0 0.0 0.00 0.00 0.00 69 1023.6
20260502012313 39 0 0.0 0.0 0.00 0.00 0.00 68 1023.6
20260502011813 39 0 0.0 0.0 0.00 0.00 0.00 68 1023.7
20260502011312 39 0 0.0 0.0 0.00 0.00 0.00 68 1023.8
20260502010812 39 0 0.0 0.0 0.00 0.00 0.00 67 1023.8
20260502010312 39 0 0.0 0.0 0.00 0.00 0.00 67 1023.7
20260502005812 39 0 0.0 0.0 0.00 0.00 0.00 67 1024.0
20260502005311 39 0 0.0 0.0 0.00 0.00 0.00 67 1024.1
20260502004811 39 0 0.0 0.0 0.00 0.00 0.00 66 1024.0
20260502004311 39 0 0.0 0.0 0.00 0.00 0.00 65 1024.0
20260502003811 40 0 0.0 0.0 0.00 0.00 0.00 65 1024.1
20260502003310 40 0 0.0 0.0 0.00 0.00 0.00 64 1024.1
20260502002810 41 0 0.0 0.0 0.00 0.00 0.00 63 1024.1
20260502002310 41 0 0.0 0.0 0.00 0.00 0.00 63 1024.1
20260502001809 42 0 0.0 0.0 0.00 0.00 0.00 63 1024.1
20260502001309 42 0 0.0 0.0 0.00 0.00 0.00 62 1024.1
20260502000809 42 0 0.0 0.0 0.00 0.00 0.00 60 1024.1
20260502000310 42 0 0.0 0.0 0.00 0.00 0.00 61 1024.2
20260501235808 42 0 0.0 0.0 0.00 0.00 0.00 61 1024.2
20260501235308 43 0 0.0 0.0 0.00 0.00 0.00 60 1024.2
20260501234808 43 0 0.0 0.0 0.00 0.00 0.00 60 1024.2
20260501234307 43 0 0.0 0.0 0.00 0.00 0.00 59 1024.3
20260501233807 43 0 0.0 0.0 0.00 0.00 0.00 59 1024.3
20260501233307 43 0 0.0 0.0 0.00 0.00 0.00 58 1024.4
20260501232807 44 0 0.0 0.0 0.00 0.00 0.00 58 1024.4
20260501232306 44 0 0.0 0.0 0.00 0.00 0.00 58 1024.4
20260501231806 44 0 0.0 0.0 0.00 0.00 0.00 58 1024.3
20260501231306 44 0 0.0 0.0 0.00 0.00 0.00 57 1024.4
20260501230805 44 0 0.0 0.0 0.00 0.00 0.00 57 1024.4
20260501230305 45 0 0.0 0.0 0.00 0.00 0.00 57 1024.4
20260501225805 45 0 0.0 0.0 0.00 0.00 0.00 57 1024.4
20260501225306 46 0 0.0 0.0 0.00 0.00 0.00 56 1024.3